Tracking 19245 objects as of 19-Aug-2018
HD Live streaming from Space Station
objects crossing your sky now

NOAA 16 DEB

Track NOAA 16 DEB now!
10-day predictions


NORAD ID: 42387
Int'l Code: 2000-055SF
Perigee: 831.7 km
Apogee: 862.9 km
Inclination: 98.9 °
Period: 101.7 minutes
Semi major axis: 7218 km
RCS: Unknown
Launch date: September 21, 2000
Source: United States (US)
Launch site: AIR FORCE WESTERN TEST RANGE (AFWTR)

Note: This is SATELLITE DEBRIS
aabbcc
Your satellite tracking list
Your tracking list is empty




NASA's NSSDC Master Catalog

Two Line Element Set (TLE):
1 42387U 00055SF  18229.44474813 +.00000642 +00000-0 +34982-3 0  9992
2 42387 098.8750 307.9853 0021601 206.1771 153.8312 14.15624558128759
Source of the keplerian elements: AFSPC